| time (UTC) | temp C | wind direction | speed KPH | gust KPH | rain 1hr cm | rain 24hr cm | rain mn cm | humidity % | barometer mb |
| 20260505014722 | 24 | 265 | 11.3 | 17.7 | 0.00 | 0.00 | 0.00 | 21 | 1011.1 |
| 20260505012712 | 24 | 304 | 9.7 | 20.9 | 0.00 | 0.00 | 0.00 | 20 | 1011.0 |
| 20260505011725 | 24 | 248 | 16.1 | 24.1 | 0.00 | 0.00 | 0.00 | 20 | 1011.0 |
| 20260505010719 | 25 | 245 | 12.9 | 24.1 | 0.00 | 0.00 | 0.00 | 20 | 1010.9 |
| 20260505004711 | 25 | 249 | 11.3 | 27.4 | 0.00 | 0.00 | 0.00 | 19 | 1010.9 |
| 20260505003708 | 25 | 277 | 14.5 | 27.4 | 0.00 | 0.00 | 0.00 | 19 | 1011.4 |
| 20260505002719 | 25 | 260 | 17.7 | 29.0 | 0.00 | 0.00 | 0.00 | 18 | 1011.6 |
| 20260505001711 | 25 | 240 | 12.9 | 24.1 | 0.00 | 0.00 | 0.00 | 18 | 1011.7 |
| 20260504235717 | 25 | 271 | 14.5 | 30.6 | 0.00 | 0.00 | 0.00 | 18 | 1011.7 |
| 20260504234710 | 25 | 251 | 16.1 | 43.5 | 0.00 | 0.00 | 0.00 | 17 | 1011.7 |
| 20260504233720 | 26 | 269 | 22.5 | 32.2 | 0.00 | 0.00 | 0.00 | 17 | 1011.7 |
| 20260504232713 | 26 | 240 | 14.5 | 27.4 | 0.00 | 0.00 | 0.00 | 17 | 1011.7 |
| 20260504231707 | 26 | 291 | 19.3 | 32.2 | 0.00 | 0.00 | 0.00 | 16 | 1011.7 |
| 20260504230716 | 26 | 255 | 19.3 | 35.4 | 0.00 | 0.00 | 0.00 | 16 | 1011.7 |
| 20260504224707 | 26 | 227 | 17.7 | 30.6 | 0.00 | 0.00 | 0.00 | 16 | 1011.8 |
| 20260504223721 | 26 | 275 | 19.3 | 32.2 | 0.00 | 0.00 | 0.00 | 15 | 1011.8 |
| 20260504222711 | 26 | 277 | 17.7 | 29.0 | 0.00 | 0.00 | 0.00 | 15 | 1012.1 |
| 20260504220721 | 26 | 232 | 17.7 | 35.4 | 0.00 | 0.00 | 0.00 | 13 | 1012.4 |
| 20260504215714 | 26 | 249 | 14.5 | 33.8 | 0.00 | 0.00 | 0.00 | 13 | 1012.5 |
| 20260504214709 | 26 | 257 | 17.7 | 32.2 | 0.00 | 0.00 | 0.00 | 14 | 1012.7 |
| 20260504213723 | 26 | 246 | 16.1 | 30.6 | 0.00 | 0.00 | 0.00 | 15 | 1012.6 |
| 20260504212713 | 26 | 246 | 12.9 | 32.2 | 0.00 | 0.00 | 0.00 | 15 | 1012.9 |
| 20260504211709 | 26 | 273 | 24.1 | 33.8 | 0.00 | 0.00 | 0.00 | 16 | 1013.0 |
| 20260504210706 | 26 | 266 | 17.7 | 27.4 | 0.00 | 0.00 | 0.00 | 17 | 1013.2 |
| 20260504205716 | 26 | 267 | 19.3 | 29.0 | 0.00 | 0.00 | 0.00 | 17 | 1013.3 |
| 20260504204710 | 26 | 229 | 20.9 | 29.0 | 0.00 | 0.00 | 0.00 | 17 | 1013.7 |
| 20260504203708 | 26 | 248 | 19.3 | 29.0 | 0.00 | 0.00 | 0.00 | 17 | 1013.8 |
| 20260504201703 | 26 | 261 | 22.5 | 30.6 | 0.00 | 0.00 | 0.00 | 17 | 1013.8 |
| 20260504200717 | 26 | 265 | 17.7 | 30.6 | 0.00 | 0.00 | 0.00 | 17 | 1013.8 |
| 20260504195715 | 25 | 248 | 24.1 | 32.2 | 0.00 | 0.00 | 0.00 | 18 | 1014.2 |
| 20260504194702 | 24 | 247 | 17.7 | 29.0 | 0.00 | 0.00 | 0.00 | 20 | 1014.3 |
| 20260504193719 | 23 | 186 | 11.3 | 17.7 | 0.00 | 0.00 | 0.00 | 24 | 1014.4 |
| 20260504192716 | 23 | 200 | 8.0 | 17.7 | 0.00 | 0.00 | 0.00 | 24 | 1014.5 |
| 20260504191709 | 23 | 263 | 14.5 | 17.7 | 0.00 | 0.00 | 0.00 | 24 | 1014.6 |
| 20260504190703 | 23 | 230 | 11.3 | 19.3 | 0.00 | 0.00 | 0.00 | 25 | 1014.7 |
| 20260504185718 | 23 | 228 | 6.4 | 19.3 | 0.00 | 0.00 | 0.00 | 27 | 1015.0 |
| 20260504184709 | 22 | 179 | 9.7 | 20.9 | 0.00 | 0.00 | 0.00 | 28 | 1015.0 |
| 20260504183704 | 22 | 246 | 9.7 | 14.5 | 0.00 | 0.00 | 0.00 | 28 | 1015.1 |
| 20260504182702 | 21 | 237 | 8.0 | 14.5 | 0.00 | 0.00 | 0.00 | 29 | 1015.2 |
| 20260504181711 | 21 | 219 | 8.0 | 17.7 | 0.00 | 0.00 | 0.00 | 30 | 1015.3 |
| 20260504180706 | 21 | 246 | 11.3 | 16.1 | 0.00 | 0.00 | 0.00 | 31 | 1015.6 |
| 20260504175703 | 21 | 238 | 6.4 | 19.3 | 0.00 | 0.00 | 0.00 | 32 | 1015.8 |
| 20260504174701 | 21 | 235 | 9.7 | 22.5 | 0.00 | 0.00 | 0.00 | 33 | 1016.0 |
| 20260504173710 | 21 | 234 | 9.7 | 16.1 | 0.00 | 0.00 | 0.00 | 33 | 1016.1 |
| 20260504172707 | 21 | 243 | 11.3 | 17.7 | 0.00 | 0.00 | 0.00 | 34 | 1016.0 |
| 20260504171658 | 20 | 360 | 4.8 | 16.1 | 0.00 | 0.00 | 0.00 | 34 | 1016.3 |
| 20260504170713 | 20 | 197 | 12.9 | 20.9 | 0.00 | 0.00 | 0.00 | 35 | 1016.4 |
| 20260504150710 | 18 | 209 | 4.8 | 11.3 | 0.00 | 0.00 | 0.00 | 38 | 1016.5 |
| 20260504140713 | 18 | 239 | 1.6 | 14.5 | 0.00 | 0.00 | 0.00 | 36 | 1016.8 |
| 20260504130654 | 17 | 298 | 6.4 | 14.5 | 0.00 | 0.00 | 0.00 | 36 | 1015.7 |
| 20260504110653 | 17 | 94 | 9.7 | 12.9 | 0.00 | 0.00 | 0.00 | 41 | 1013.6 |
| 20260504081704 | 18 | 179 | 4.8 | 11.3 | 0.00 | 0.00 | 0.00 | 46 | 1014.1 |
| 20260504080657 | 18 | 151 | 8.0 | 12.9 | 0.00 | 0.00 | 0.00 | 47 | 1014.3 |
| 20260504050654 | 18 | 132 | 3.2 | 8.0 | 0.00 | 0.00 | 0.00 | 46 | 1014.7 |
| 20260504045649 | 18 | 146 | 6.4 | 9.7 | 0.00 | 0.00 | 0.00 | 47 | 1014.6 |
| 20260504043657 | 18 | 115 | 1.6 | 4.8 | 0.00 | 0.00 | 0.00 | 49 | 1014.7 |
| 20260504042651 | 18 | 133 | 3.2 | 6.4 | 0.00 | 0.00 | 0.00 | 49 | 1014.7 |
| 20260504041649 | 18 | 121 | 1.6 | 3.2 | 0.00 | 0.00 | 0.00 | 50 | 1014.7 |
| 20260504035700 | 18 | 121 | 1.6 | 6.4 | 0.00 | 0.00 | 0.00 | 50 | 1014.7 |
| 20260504033658 | 19 | 130 | 3.2 | 6.4 | 0.00 | 0.00 | 0.00 | 47 | 1014.7 |
| 20260504031654 | 20 | 153 | 0.0 | 3.2 | 0.00 | 0.00 | 0.00 | 44 | 1014.6 |
| 20260504025701 | 21 | 136 | 0.0 | 1.6 | 0.00 | 0.00 | 0.00 | 43 | 1014.5 |
| 20260504024656 | 21 | 107 | 0.0 | 1.6 | 0.00 | 0.00 | 0.00 | 44 | 1014.6 |
| 20260504022651 | 22 | 116 | 0.0 | 1.6 | 0.00 | 0.00 | 0.00 | 41 | 1014.5 |